Wind_Speed
12 13 14 16 17 19 20 21 22 22 22 23 24 24 25 26 27 29 30 32 33 35 37 39 40 41 43 45 48 50 51 52 53 55 55 56 56 55 54 53 52 51 50 49
9 10 11 13 15 16 17 17 18 18 19 19 19 20 20 21 22 23 25 27 29 31 33 34 35 37 39 42 45 49 51 52 52 53 54 55 55 55 54 53 53 52 51 50
7 8 8 9 10 12 14 14 15 15 15 16 17 17 17 18 18 19 21 22 24 25 28 30 32 34 35 37 41 45 47 49 50 51 52 53 54 54 53 53 53 53 53 52
6 6 7 7 8 9 11 12 13 13 13 13 14 13 14 14 14 15 16 17 19 21 22 24 25 28 30 32 35 39 42 45 47 49 51 53 53 52 51 51 51 52 53 53
4 5 5 6 6 7 8 9 10 11 11 11 12 11 11 12 12 12 12 13 15 16 16 17 20 22 24 26 30 33 37 40 42 45 48 51 51 51 51 50 49 50 51 51
4 3 3 4 4 5 6 6 7 8 9 9 9 10 10 9 9 10 10 11 12 12 13 14 16 18 20 21 24 27 31 35 37 40 43 46 48 49 49 49 49 49 49 50
4 4 3 4 4 4 5 5 6 6 6 7 7 7 6 6 7 8 9 10 10 11 11 12 13 15 16 17 18 19 22 27 31 33 37 40 42 44 46 47 47 47 47 48
5 4 3 3 3 4 4 4 4 5 5 6 6 6 6 5 6 7 8 8 8 9 11 12 12 12 12 13 14 16 18 20 24 26 30 34 36 39 41 43 44 45 45 45
4 3 3 3 3 3 3 3 3 3 4 5 5 5 6 6 5 6 6 7 7 7 8 9 10 11 11 10 10 13 15 17 20 23 26 29 31 33 36 38 39 40 41 41
5 4 3 2 2 2 2 2 2 2 3 3 3 4 5 5 5 5 5 6 6 4 5 5 5 6 7 7 8 9 11 14 17 19 22 24 26 29 32 34 35 36 38 40
6 6 4 3 1 1 1 1 1 1 2 2 3 4 5 5 4 4 5 4 3 3 2 1 3 4 4 5 6 8 9 11 14 15 16 18 21 24 28 30 32 33 34 36
6 6 5 4 3 2 2 2 1 1 1 1 2 3 4 4 4 4 4 3 2 2 1 1 1 1 2 3 4 5 5 7 9 12 13 15 17 20 23 25 27 29 31 32
6 5 5 5 4 3 2 1 0 1 1 1 1 2 2 2 3 2 2 2 2 1 1 2 1 0 1 1 3 4 4 5 7 10 12 14 16 17 19 21 23 25 27 29
5 4 4 4 4 4 3 2 1 1 1 2 2 1 1 1 2 2 2 2 1 2 2 2 2 2 1 0 2 3 4 5 6 8 10 12 13 15 17 18 21 23 25 27
4 4 4 4 4 3 3 3 3 3 2 2 2 2 2 1 1 1 0 1 1 2 3 3 3 3 3 3 2 2 3 4 5 6 8 10 12 13 15 16 18 20 23 25
4 4 4 3 3 3 2 2 2 3 3 2 2 2 2 1 0 0 0 1 2 2 2 2 3 4 5 5 5 5 4 4 5 6 7 9 11 12 14 15 17 18 20 23
4 4 4 3 3 3 2 2 2 1 2 2 3 3 3 2 1 1 1 1 2 3 3 4 5 5 5 6 7 6 6 6 7 8 9 9 11 13 14 16 17 18 20 22
5 5 5 5 5 4 4 4 3 2 2 2 3 4 3 3 3 3 2 3 3 4 5 6 6 6 7 8 9 9 9 10 10 10 11 11 12 14 16 17 18 20 22 24
6 6 6 6 6 5 5 4 4 4 4 3 4 4 4 4 4 4 5 6 6 6 6 6 6 7 7 8 9 10 11 12 11 11 12 12 14 16 18 19 20 22 23 25
7 8 7 7 7 6 6 5 5 5 5 4 4 4 4 5 5 5 6 6 7 7 7 7 8 8 9 10 11 11 11 12 13 13 14 15 16 18 19 20 22 24 26 27
9 8 8 8 8 7 7 7 7 7 6 6 6 6 6 6 6 6 7 7 8 9 9 9 10 10 11 12 12 13 13 14 15 15 17 18 19 20 21 23 24 26 28 30
10 10 9 9 9 9 9 9 9 9 9 9 9 9 9 8 8 8 9 10 10 10 11 11 12 12 13 14 14 15 16 17 17 18 19 21 21 22 24 25 27 28 30 31
12 12 11 11 11 11 11 11 12 12 12 12 11 11 11 11 11 11 12 12 12 12 13 14 14 15 16 16 16 17 18 19 20 21 21 22 24 25 26 27 28 29 30 31
13 13 13 13 13 14 14 14 14 14 13 13 12 13 13 14 14 14 14 14 14 15 16 17 17 17 18 18 19 19 20 21 22 22 23 24 25 26 27 28 29 30 31 32
16 16 16 15 15 16 15 15 15 16 15 14 14 14 15 15 16 16 16 16 16 17 18 19 20 20 20 20 20 21 21 22 24 25 26 27 28 29 30 31 32 33 34 34
18 18 18 17 18 17 17 17 17 17 17 16 16 16 17 17 18 18 19 19 19 19 19 20 21 21 22 23 23 23 24 25 27 28 29 30 31 32 33 34 34 35 36 36
Wind_Direction
225 223 224 226 229 231 232 234 237 241 243 246 249 252 254 256 256 255 255 256 255 253 252 253 253 251 249 247 245 243 243 242 241 240 239 238 238 238 238 237 237 239 242 243
214 216 222 225 228 228 229 230 232 235 239 244 247 249 251 253 255 256 256 256 255 254 252 252 252 251 250 248 245 244 244 243 241 240 239 238 237 237 237 238 238 239 240 241
200 208 216 221 222 225 227 228 230 233 237 241 243 246 249 252 254 256 257 259 258 256 254 252 252 251 250 250 248 245 243 241 239 238 237 236 237 237 238 239 240 239 240 240
185 196 207 215 219 222 224 224 227 229 232 235 239 243 242 247 252 255 257 259 258 257 256 252 251 252 252 251 249 245 242 240 237 236 235 236 236 236 237 238 239 238 239 240
168 189 200 208 213 219 218 219 224 227 228 232 236 241 243 247 253 258 260 261 258 257 256 253 251 252 252 252 250 244 240 238 237 237 236 234 234 234 234 235 237 239 241 242
127 149 177 189 195 202 206 211 217 218 224 232 238 245 249 251 255 260 263 262 259 258 258 258 256 256 253 253 249 243 240 238 237 237 235 233 233 233 233 235 238 241 242 243
101 104 121 152 171 178 185 196 204 213 226 234 235 241 246 252 262 267 268 265 261 263 263 263 261 257 254 250 243 242 240 237 236 236 235 233 234 235 236 237 239 241 242 242
89 91 99 126 153 171 183 189 200 217 230 230 232 245 253 260 269 271 274 273 273 273 268 266 262 255 257 252 244 240 238 233 233 236 236 235 235 236 237 237 239 241 242 243
67 78 88 109 138 163 169 180 194 221 228 221 234 253 259 271 285 287 288 288 289 290 280 274 265 256 257 257 250 241 236 231 231 234 234 233 235 236 236 237 239 242 243 244
62 67 91 113 134 167 180 188 203 229 228 238 249 272 282 281 295 302 303 309 310 300 291 281 265 256 255 259 254 244 238 233 232 234 233 233 234 235 237 237 240 241 243 246
61 62 73 82 102 142 151 166 192 206 210 256 282 297 295 299 301 311 319 323 317 312 320 278 274 267 255 256 247 236 229 233 233 232 235 236 237 238 240 241 243 245 246 247
55 57 62 62 71 97 121 130 136 169 225 285 307 314 307 309 313 316 321 325 345 6 12 4 331 274 254 236 223 214 224 236 237 235 239 242 244 246 247 246 247 248 247 248
51 55 57 58 58 63 80 125 76 5 10 354 340 334 325 324 328 325 331 329 347 38 46 39 36 52 237 229 222 226 245 254 251 244 245 247 248 248 250 252 251 251 252 255
44 46 45 44 39 52 67 71 45 29 64 69 39 15 353 338 336 338 323 330 0 22 46 53 56 59 52 296 247 244 252 251 253 251 250 251 254 255 256 258 257 255 257 258
28 28 29 31 32 46 63 67 50 40 48 36 31 27 16 14 4 2 1 34 48 46 46 46 41 29 20 12 5 338 268 263 265 267 264 265 267 265 264 264 266 263 261 262
7 10 12 20 17 21 40 41 35 36 42 40 36 28 20 14 342 239 302 28 31 23 28 22 10 4 1 360 358 352 332 299 289 289 282 278 276 276 274 274 273 273 270 270
349 346 343 348 334 325 310 289 313 2 9 9 7 10 11 2 310 285 282 331 357 349 340 336 330 332 335 337 337 336 341 334 313 303 298 289 283 282 280 278 280 280 280 279
327 333 331 327 316 312 306 287 276 274 292 332 346 351 353 329 293 280 284 304 323 326 319 314 314 314 317 320 321 320 321 322 320 316 312 298 291 288 286 286 285 287 289 289
309 315 314 313 310 305 301 290 273 264 272 299 325 338 339 330 310 295 292 302 310 313 310 310 311 311 313 316 318 319 318 316 316 316 315 310 300 295 294 295 293 293 293 293
305 305 300 296 295 294 293 285 277 273 276 285 304 318 319 321 321 314 304 300 305 310 310 309 308 306 307 310 314 315 315 316 314 313 314 314 310 306 301 297 296 295 295 295
299 298 293 287 285 283 284 281 275 274 276 278 287 295 300 307 312 313 307 301 300 300 303 306 309 309 307 307 309 311 309 310 309 309 309 311 312 311 309 304 299 297 297 297
289 285 283 281 280 277 276 275 272 273 274 276 281 285 288 291 297 303 303 297 294 293 297 299 303 306 307 306 307 308 307 308 309 309 308 309 309 309 308 306 303 300 299 299
282 279 276 276 275 272 271 273 273 275 276 277 278 277 278 281 286 293 298 297 291 290 292 295 297 300 303 304 305 306 305 306 308 309 309 308 307 308 308 307 307 306 304 303
276 274 274 273 273 271 270 271 273 271 271 272 273 271 273 277 280 284 291 295 294 291 291 294 296 298 300 300 300 301 302 303 306 307 308 309 309 309 309 309 309 309 309 308
275 273 271 270 270 271 270 270 271 268 267 267 269 271 273 275 278 281 284 289 292 293 293 294 294 296 297 297 298 299 300 302 304 306 307 308 309 309 309 310 310 311 311 310
273 274 271 268 268 272 273 272 271 269 269 270 273 275 275 275 277 279 282 285 287 289 291 293 294 295 296 295 296 297 299 301 303 305 307 307 308 308 308 309 311 311 311 310
Height
5652 5656 5657 5659 5661 5664 5666 5668 5670 5671 5673 5675 5676 5677 5677 5678 5679 5679 5680 5680 5681 5682 5684 5685 5687 5688 5690 5692 5695 5698 5702 5706 5710 5715 5720 5726 5731 5737 5742 5746 5751 5755 5759 5763
5652 5653 5655 5656 5658 5660 5662 5664 5665 5667 5669 5670 5671 5672 5672 5672 5673 5673 5673 5673 5674 5674 5675 5676 5677 5678 5680 5681 5683 5686 5690 5694 5698 5704 5709 5714 5719 5725 5730 5736 5741 5745 5749 5753
5650 5652 5653 5654 5656 5658 5659 5661 5662 5664 5665 5666 5667 5668 5668 5668 5667 5668 5667 5667 5666 5666 5667 5668 5668 5669 5670 5671 5672 5674 5678 5681 5686 5691 5696 5702 5708 5714 5720 5725 5730 5735 5739 5742
5649 5651 5652 5653 5654 5655 5657 5658 5660 5661 5662 5663 5665 5665 5665 5664 5664 5663 5662 5662 5661 5660 5660 5660 5661 5661 5661 5662 5662 5663 5666 5670 5674 5679 5685 5692 5698 5704 5710 5715 5720 5724 5728 5732
5650 5650 5651 5652 5653 5654 5655 5656 5658 5659 5660 5661 5662 5662 5663 5661 5660 5659 5658 5657 5656 5656 5655 5655 5654 5654 5654 5653 5653 5654 5657 5660 5664 5669 5675 5681 5687 5693 5699 5704 5709 5713 5718 5722
5650 5650 5651 5652 5653 5653 5655 5656 5657 5657 5658 5660 5660 5660 5660 5658 5657 5656 5655 5654 5653 5652 5651 5650 5649 5649 5648 5647 5647 5647 5650 5653 5656 5660 5665 5671 5677 5683 5689 5694 5699 5704 5708 5712
5651 5651 5652 5652 5653 5654 5655 5656 5657 5657 5657 5658 5658 5657 5657 5656 5655 5654 5653 5652 5650 5649 5648 5646 5645 5644 5644 5643 5643 5643 5644 5647 5650 5653 5657 5662 5668 5673 5679 5685 5690 5694 5698 5702
5652 5653 5653 5653 5653 5654 5654 5656 5657 5657 5657 5657 5656 5655 5656 5654 5653 5652 5651 5649 5648 5646 5645 5643 5642 5641 5640 5640 5639 5639 5641 5643 5646 5649 5652 5656 5660 5665 5671 5676 5680 5685 5688 5692
5653 5654 5653 5653 5653 5654 5654 5655 5656 5656 5655 5655 5655 5654 5654 5652 5651 5650 5648 5647 5646 5644 5642 5640 5639 5638 5638 5637 5637 5637 5638 5640 5643 5645 5647 5651 5655 5659 5663 5668 5671 5675 5679 5683
5655 5655 5654 5654 5654 5655 5655 5655 5655 5655 5655 5654 5654 5653 5653 5651 5650 5648 5647 5645 5644 5642 5641 5639 5637 5636 5635 5635 5635 5635 5636 5638 5640 5642 5643 5646 5649 5652 5656 5660 5663 5666 5670 5674
5656 5656 5656 5655 5654 5654 5655 5655 5654 5654 5654 5654 5653 5655 5651 5649 5648 5647 5645 5644 5643 5642 5640 5638 5637 5635 5635 5634 5634 5634 5635 5636 5637 5639 5641 5642 5645 5647 5650 5653 5656 5658 5661 5664
5657 5657 5656 5656 5655 5654 5654 5654 5654 5655 5654 5653 5652 5655 5650 5648 5647 5646 5645 5643 5642 5641 5640 5638 5636 5635 5635 5634 5634 5634 5634 5635 5636 5637 5638 5639 5641 5642 5644 5646 5648 5650 5652 5655
5659 5658 5658 5657 5658 5656 5654 5654 5654 5654 5653 5652 5652 5654 5649 5648 5646 5645 5644 5643 5642 5641 5640 5638 5637 5636 5635 5634 5634 5634 5634 5634 5634 5634 5635 5636 5637 5638 5639 5640 5642 5643 5645 5646
5660 5659 5659 5659 5657 5655 5655 5654 5654 5653 5653 5652 5652 5651 5649 5647 5646 5645 5644 5643 5642 5641 5640 5639 5637 5636 5635 5635 5634 5634 5633 5633 5633 5632 5633 5633 5633 5634 5635 5635 5636 5637 5638 5639
5660 5660 5659 5658 5657 5656 5656 5655 5654 5653 5653 5652 5652 5650 5649 5647 5646 5645 5644 5644 5642 5641 5640 5639 5638 5637 5636 5635 5634 5633 5633 5632 5631 5631 5630 5630 5630 5630 5630 5630 5630 5631 5631 5631
5661 5660 5659 5659 5657 5656 5656 5655 5654 5653 5653 5652 5651 5650 5649 5647 5646 5646 5645 5644 5643 5642 5641 5640 5639 5638 5637 5635 5634 5633 5632 5631 5630 5629 5628 5627 5627 5626 5626 5626 5625 5625 5625 5625
5661 5660 5659 5659 5657 5656 5656 5655 5654 5654 5653 5652 5651 5651 5649 5648 5646 5646 5645 5644 5643 5642 5641 5640 5639 5638 5637 5635 5634 5633 5631 5630 5628 5627 5625 5625 5624 5623 5622 5622 5621 5620 5619 5618
5660 5659 5658 5657 5657 5656 5657 5654 5653 5653 5652 5651 5650 5649 5648 5647 5646 5645 5644 5644 5643 5642 5641 5640 5638 5637 5636 5635 5633 5632 5630 5629 5627 5625 5623 5622 5621 5619 5618 5617 5616 5615 5613 5611
5659 5658 5657 5656 5655 5655 5655 5653 5652 5652 5651 5650 5650 5649 5648 5646 5645 5644 5643 5643 5642 5641 5639 5638 5637 5636 5635 5633 5632 5630 5629 5627 5625 5623 5621 5620 5618 5616 5615 5613 5611 5609 5607 5605
5657 5656 5656 5654 5653 5653 5654 5652 5650 5651 5650 5649 5648 5648 5646 5645 5645 5644 5642 5641 5640 5639 5638 5637 5636 5634 5633 5632 5630 5629 5627 5625 5623 5621 5619 5617 5615 5612 5610 5608 5606 5604 5601 5599
5655 5654 5653 5652 5651 5651 5651 5649 5649 5650 5650 5648 5647 5646 5645 5644 5643 5642 5641 5640 5639 5638 5637 5635 5634 5633 5631 5629 5628 5626 5624 5622 5620 5618 5616 5613 5611 5608 5605 5603 5600 5597 5594 5591
5651 5651 5650 5649 5649 5651 5648 5647 5647 5647 5646 5645 5644 5644 5643 5642 5641 5640 5639 5637 5636 5635 5634 5633 5632 5630 5629 5627 5625 5623 5621 5619 5616 5614 5611 5609 5606 5603 5600 5597 5593 5590 5586 5583
5648 5648 5646 5647 5648 5646 5644 5644 5644 5643 5642 5642 5641 5641 5640 5639 5638 5637 5636 5634 5633 5632 5631 5630 5629 5627 5625 5623 5621 5619 5617 5614 5612 5609 5606 5603 5600 5597 5594 5590 5587 5583 5579 5575
5644 5643 5642 5641 5642 5641 5640 5640 5639 5639 5638 5638 5637 5637 5636 5636 5635 5634 5632 5631 5629 5628 5627 5626 5624 5623 5621 5618 5616 5614 5612 5609 5607 5604 5601 5598 5594 5591 5588 5584 5580 5575 5571 5567
5639 5637 5636 5636 5637 5636 5636 5635 5634 5634 5634 5633 5633 5632 5632 5631 5630 5629 5628 5627 5625 5624 5622 5621 5619 5617 5615 5613 5611 5608 5606 5603 5601 5598 5595 5591 5588 5584 5581 5576 5572 5568 5563 5558
5633 5632 5631 5631 5631 5631 5631 5630 5629 5629 5629 5629 5628 5628 5627 5626 5625 5624 5623 5622 5620 5619 5617 5615 5613 5611 5609 5607 5605 5602 5599 5597 5594 5590 5587 5584 5580 5576 5572 5568 5564 5558 5554 5549